STARLINK-32743, 62480

Orbit data source: Space-Track

STARLINK-32743, 62480 is a payload satellite owned by SpaceX/Seattle (US) in LEO that was launched on Tue, 31 Dec 2024 UTC via an FALCON 9 launch vehicle from the Air Force Eastern Test Range (AFETR). Payload-class satellites include a variety of spacecraft equipped with specific instruments for various scientific and technological missions. These include communications satellites like Starlink; space stations such as the ISS; scientific satellites like the Hubble; Earth observation satellites from companies like Planet Labs, Umbra, and HawkEye 360; GPS; miniature CubeSats for education and research; and military/defense satellites.

Loading next visibility...
Identifier
62480, 2024-254U
Orbit
LEO
Country
Flag of USUS
Related business
Manufacturer
SpaceX/Seattle
Mission
Operational Commercial Communications
Bus & Motor
STARLINK V2M, Unknown motor
Mass
730 kg wet, ~700 kg dry
Launch date (UTC)
2024-12-31 (1 year ago)
Launch vehicle
FALCON 9
Launch site
Air Force Eastern Test Range (AFETR)
Object type
Payload
Rocket body
Debris
Shape & HBR
Box + 2 Pan, 17.7 m
Radar Cross Section
33.884 m², Large (>1 m²)

Expand to show TLE details & history
Last TLE update: 9 hours ago

TLE from 9 hours ago
0 STARLINK-32743
1 62480U 24254U   25354.99763368  .00021225  00000-0  77809-3 0  9993
2 62480  42.9983 100.2984 0002710 270.9976  89.0565 15.27599775 55629
Epoch: 2025-12-20T23:56Z
TLE epoch observation values (Epoch: 2025-12-20T23:56:35.549Z)
Latitude
-0.00005°
Longitude
11.33383°
Altitude
482.735 km
Speed
7.626 km/s
True Right ascension
06h 41m 11s
True Declination
0° 00' 00"
Sunlit
Object was in full shadow at epoch
Visualization orbit readout
Latitude
Unknown
Longitude
Unknown
Altitude
Unknown
Speed
Unknown
Apparent Right ascension
Unknown
Apparent Declination
Unknown
Sunlit
N/A
Visualization observer readout
Local Sidereal Time
07:45:44
Azimuth
Unknown
Elevation
Unknown
Doppler factor
Unknown
Orbital elements
Apogee altitude
486.795 km
Perigee altitude
483.075 km
Semi-major axis
6,863.072 km
Eccentricity
0.00027
Inclination
42.9983°
RAAN
100.2984°
Arg. of periapsis
270.9976°
True anomaly
89.08755°
Mean anomaly
89.0565°
Eccentric anomaly
89.07203°
Mean motion
3.81738 °/min
Orbital period
94.31 mins
BSTAR
0.00077809
Loading maneuver chart data...
Computing Atmospheric mass density...
Loading historical data...
Loading historical data...
Loading historical data...
Loading historical data...
Loading historical data...
Loading historical data...
Loading historical data...

Documentation

Showing up to 5 results
|